Flag for Austria Weather past 2 weeks in Enns, Upper Austria, Austria

Now
N/A

Passing clouds.


Feels Like: N/A
Forecast: 61 / 92 °F
Wind: 16 mph from Southeast

Location: Linz / Hoersching-Flughafen

Current Time: Aug 31, 2015 at 9:08:34 AM

Latest Report: Aug 31, 2015 at 8:00 AM


Visibility: 2 mi

Pressure: N/A

Humidity: N/A

Dew point: N/A

Location of EnnsLocation

Historic Weather in Enns — Graph

°F

Enns temperature yesterday

Maximum temperature yesterday: 95 °F (at 5:00 PM)
Minimum temperature yesterday: 63 °F (at 7:00 AM)
Average temperature yesterday: 79 °F

Past Weeks' High & Low Weather Summary

 TemperatureHumidityPressure
High95 °F (Aug 30, 5:00 PM)96% (Aug 21, 12:00 AM)30.27 "Hg (Aug 21, 12:00 AM)
Low46 °F (Aug 26, 6:00 AM)17% (Aug 26, 4:00 PM)29.66 "Hg (Aug 24, 7:00 PM)
Average68 °F66%30.01 "Hg
* Reported Aug 16 8:00 AM — Aug 31 8:00 AM, Enns, Weather by CustomWeather, © 2015

Note: Actual official high and low records may vary slightly from our data, if they occured in-between our weather recording intervals... More about our weather records

Advertising

Enns weather history for previous 24 hours

 ConditionsComfort  
Time TempWeatherWind HumidityBarometerVisibility
8:00 AM
Mon, Aug 31
N/APassing clouds.16 mphN/AN/A2 mi
7:00 AM63 °FSunny.N/A90%29.99 "Hg9 mi
6:00 AMN/APassing clouds.15 mphN/AN/A8 mi
5:00 AM64 °FClear.N/A91%29.98 "Hg13 mi
4:00 AMN/APassing clouds.14 mphN/AN/A8 mi
3:00 AM67 °FMild.N/A84%29.99 "Hg17 mi
2:00 AM68 °FMild.N/A82%30.00 "Hg18 mi
1:00 AM69 °FMild.N/A80%30.01 "Hg19 mi
12:00 AM75 °FMild.N/A67%29.99 "Hg28 mi
11:00 PM
Sun, Aug 30
77 °FClear.N/A62%29.99 "Hg19 mi
10:00 PM78 °FClear.N/A61%29.99 "Hg14 mi
9:00 PM82 °FClear.N/A52%29.98 "Hg10 mi
8:00 PM89 °FClear.N/A40%29.95 "Hg28 mi
7:00 PM93 °FSunny.N/A35%29.94 "Hg17 mi
6:00 PM94 °FSunny.N/A33%29.95 "Hg25 mi
5:00 PM95 °FSunny.N/A31%29.96 "Hg22 mi
4:00 PM94 °FPassing clouds.N/A33%29.98 "Hg16 mi
3:00 PM93 °FPassing clouds.N/A35%30.01 "Hg25 mi
2:00 PM92 °FPassing clouds.N/A38%30.03 "Hg19 mi
1:00 PM87 °FPassing clouds.N/A41%30.06 "Hg10 mi
12:00 PMN/APassing clouds.6 mphN/AN/A3 mi
11:00 AM80 °FPassing clouds.N/A52%30.09 "Hg19 mi
10:00 AMN/APassing clouds.10 mphN/AN/A0 mi
9:00 AM73 °FPassing clouds.N/A67%30.09 "Hg12 mi
Weather by CustomWeather, © 2015

See weather overviewHow to use our weather pages